Location: Mannheim
(49.4880°N, 8.4650°E)
Time: 09:59:03
(UTC+01:00)

ISS - Visible Passes

Search period start: 21 February 2019 00:00
Search period end: 03 March 2019 00:00
Orbit: 403 x 411 km, 51.6° (Epoch: 21 February)

Date Brightness Start Highest point End Pass type
(mag) Time Alt. Az. Time Alt. Az. Time Alt. Az.
23 Feb -0.9 06:34:11 10° S 06:36:20 17° SE 06:38:31 10° E visible
24 Feb -0.5 05:44:56 10° SE 05:45:10 10° SE 05:45:23 10° SE visible
25 Feb -2.1 06:26:46 10° SSW 06:29:42 31° SSE 06:32:40 10° E visible
26 Feb -1.5 05:36:05 11° S 05:38:25 20° SE 05:40:55 10° E visible
27 Feb -1.0 04:47:00 13° SE 04:47:10 13° SE 04:48:42 10° ESE visible
27 Feb -3.3 06:19:56 10° SW 06:23:09 58° SSE 06:26:24 10° ENE visible
28 Feb -2.7 05:30:30 26° SSW 05:31:45 38° SSE 05:34:49 10° E visible
01 Mar -1.6 04:41:11 22° ESE 04:41:11 22° ESE 04:43:08 10° E visible
01 Mar -3.9 06:13:53 14° WSW 06:16:39 86° NNW 06:19:57 10° ENE visible
02 Mar -3.7 05:24:28 50° SW 05:25:09 69° SSE 05:28:25 10° ENE visible
